[[{"header":{"parameterUnit":"m.s-1","parameterCategory":1,"la1":30.2991,"la2":30.254,"lo1":-89.0895,"lo2":-89.0444,"dy":0.0017,"dx":0.0017,"nx":28,"ny":28,"refTime":"2025-06-11T21:00:00:Z","depth":0,"parameterNumber":2,"parameterNumberName":"U-component_of_WINDS"},"data":[0,0,0,0,0,0,0,0,0,0,0,0,0,0,0,0,0,0,0,0,0,0,0,0,0,0,0,0,0,0,0,0,0,0,0,0,0,0,0,0,0,0,0,0,0,0,0,0,0,0,0,0,0,0,0,0,0,0,-1.3773,-1.3773,0,-1.3704,-1.3703,-1.3702,-1.3655,-1.3655,-1.3655,-1.3654,-1.3582,-1.358,-1.3578,0,0,0,0,0,0,0,0,0,0,0,0,0,-1.3866,-1.3864,-1.3774,-1.3773,-1.3772,-1.3704,-1.3703,-1.3702,-1.3655,-1.3655,-1.3655,-1.3654,-1.3582,-1.358,-1.3578,0,0,0,0,0,0,0,0,0,0,0,0,0,-1.3814,-1.3864,-1.3774,-1.374,-1.3737,-1.3704,-1.3703,-1.3702,-1.3655,-1.3655,-1.3654,-1.3654,-1.3583,-1.358,-1.3578,-1.3573,0,0,-1.3571,-1.3569,0,0,0,0,0,0,0,0,-1.3817,-1.3811,-1.3746,-1.3743,-1.3738,-1.3688,-1.3709,-1.3658,-1.3656,-1.3686,-1.3654,-1.3654,-1.3617,-1.3612,-1.36,-1.3569,-1.3566,-1.357,-1.3569,-1.3568,-1.3567,0,0,0,0,0,0,0,-1.3821,-1.3813,-1.3746,-1.3745,-1.374,-1.3729,-1.3721,-1.3699,-1.3655,-1.3684,-1.368,-1.3672,-1.3615,-1.3602,-1.3598,-1.3565,-1.357,-1.3568,-1.3567,-1.3566,-1.3528,-1.3529,0,0,0,0,0,0,-1.383,-1.3817,-1.3748,-1.3744,-1.3777,-1.3728,-1.3719,-1.3705,-1.3655,-1.3647,-1.3673,-1.3671,-1.3607,-1.3601,-1.3595,-1.3586,-1.3568,-1.3565,-1.3564,-1.3528,-1.3528,-1.3529,0,0,0,0,0,0,-1.3832,-1.3824,-1.3751,-1.3779,-1.3769,-1.3727,-1.3711,-1.3703,-1.3691,-1.3647,-1.3639,-1.3668,-1.3606,-1.3599,-1.3579,-1.3583,-1.3564,-1.3562,-1.3527,-1.3528,-1.3529,-1.3568,0,0,0,0,0,0,-1.3835,-1.3825,-1.3822,-1.378,-1.3768,-1.3736,-1.3711,-1.3702,-1.3687,-1.3683,-1.3641,-1.3633,-1.3605,-1.3583,-1.3577,-1.3579,-1.356,-1.3527,-1.3528,-1.3528,-1.3566,-1.357,-1.3573,0,0,0,0,0,-1.3838,-1.3836,-1.3822,-1.3814,-1.3764,-1.3736,-1.3729,-1.3698,-1.3687,-1.3684,-1.3657,-1.3635,-1.3584,-1.3581,-1.3574,-1.3576,-1.3526,-1.3527,-1.3528,-1.3564,-1.3569,-1.3573,0,0,0,0,0,0,-1.3879,-1.3829,-1.3814,-1.3798,-1.3772,-1.3728,-1.3723,-1.3704,-1.3679,-1.3677,-1.3638,-1.3629,-1.3614,-1.3593,-1.3591,-1.3569,-1.3552,-1.3552,-1.3583,-1.3587,-1.359,-1.3595,-1.3558,0,0,0,0,0,-1.3886,-1.3868,-1.3826,-1.3816,-1.3803,-1.3766,-1.3753,-1.3731,-1.3702,-1.3691,-1.3662,-1.3635,-1.3613,-1.3599,-1.3576,-1.3564,-1.3554,-1.3561,-1.3565,-1.3568,-1.3568,-1.3561,-1.3564,-1.3532,-1.3532,-1.3532,0,0,-1.39,-1.3871,-1.3862,-1.3823,-1.38,-1.3783,-1.3757,-1.3739,-1.3726,-1.3688,-1.3668,-1.3646,-1.3613,-1.3598,-1.3589,-1.358,-1.3575,-1.357,-1.3572,-1.357,-1.3562,-1.3565,-1.3568,-1.3533,-1.3533,-1.3533,0,0,-1.3917,-1.3894,-1.3883,-1.3861,-1.3827,-1.3803,-1.3801,-1.3761,-1.3745,-1.3725,-1.3696,-1.368,-1.3643,-1.3621,-1.3605,-1.3617,-1.3595,-1.3611,-1.3629,-1.3622,-1.3625,-1.3627,-1.3631,-1.3633,-1.3611,-1.3611,-1.3611,0,-1.3939,-1.3912,-1.388,-1.3864,-1.3848,-1.3814,-1.3803,-1.3784,-1.3744,-1.3734,-1.3724,-1.3678,-1.3654,-1.3633,-1.3636,-1.3624,-1.3621,-1.3614,-1.3627,-1.3629,-1.363,-1.3633,-1.3635,-1.3613,-1.3613,-1.3613,-1.3612,0,-1.394,-1.3922,-1.3917,-1.3881,-1.3865,-1.3851,-1.3818,-1.3805,-1.3785,-1.3762,-1.3743,-1.3713,-1.3684,-1.3678,-1.3658,-1.3654,-1.365,-1.3634,-1.3617,-1.3635,-1.3638,-1.3639,-1.3616,-1.3615,-1.3615,-1.3614,0,0,-1.3979,-1.3927,-1.3925,-1.3909,-1.3871,-1.3856,-1.3842,-1.3814,-1.3804,-1.3779,-1.3766,-1.3737,-1.3723,-1.3705,-1.3683,-1.3677,-1.3689,-1.3663,-1.3661,-1.3668,-1.3684,-1.3696,-1.3698,-1.3676,-1.3676,-1.3676,-1.3687,0,-1.3989,-1.3962,-1.3934,-1.3917,-1.3899,-1.3869,-1.3857,-1.3832,-1.3811,-1.3793,-1.377,-1.3749,-1.3732,-1.3722,-1.3715,-1.3689,-1.3692,-1.3688,-1.3663,-1.3663,-1.3671,-1.3699,-1.371,-1.3722,-1.3688,-1.3688,-1.3688,0,-1.3998,-1.3975,-1.3956,-1.3921,-1.3912,-1.3902,-1.3875,-1.3859,-1.3831,-1.3816,-1.3798,-1.3775,-1.3759,-1.3745,-1.3723,-1.3721,-1.371,-1.3696,-1.3696,-1.3691,-1.3676,-1.3695,-1.3725,-1.3727,-1.3689,-1.3689,-1.3689,0,-1.4027,-1.3992,-1.3976,-1.3963,-1.3922,-1.3915,-1.3898,-1.3869,-1.3855,-1.3832,-1.3823,-1.3799,-1.3785,-1.3767,-1.3738,-1.3731,-1.3719,-1.3703,-1.3706,-1.3707,-1.3704,-1.3704,-1.3732,-1.3698,-1.3698,-1.3698,-1.3698,0,-1.4041,-1.4031,-1.3989,-1.3979,-1.3967,-1.3936,-1.3925,-1.3905,-1.388,-1.3866,-1.3839,-1.3826,-1.379,-1.3773,-1.3751,-1.3736,-1.373,-1.3718,-1.3712,-1.372,-1.3721,-1.3711,-1.3709,-1.3699,-1.3699,-1.3699,-1.3699,0,-1.4072,-1.4043,-1.4024,-1.3987,-1.3978,-1.3971,-1.3939,-1.3929,-1.3907,-1.389,-1.3884,-1.3849,-1.3829,-1.3799,-1.3769,-1.3754,-1.3743,-1.3734,-1.3753,-1.3749,-1.3754,-1.3754,-1.3775,-1.3776,-1.3743,-1.3743,-1.3743,0,-1.4082,-1.4074,-1.4036,-1.4025,-1.4009,-1.3991,-1.3977,-1.3947,-1.3933,-1.3902,-1.3896,-1.3873,-1.3853,-1.3822,-1.3795,-1.3772,-1.3762,-1.3771,-1.3758,-1.3767,-1.3761,-1.3762,-1.3761,-1.3773,-1.3774,-1.3774,-1.3775,0,-1.4104,-1.4091,-1.4071,-1.4048,-1.4032,-1.4012,-1.3991,-1.3983,-1.3948,-1.3935,-1.3914,-1.3899,-1.3869,-1.3847,-1.3822,-1.3804,-1.3784,-1.378,-1.3779,-1.3786,-1.3798,-1.3792,-1.376,-1.3779,-1.3778,-1.3778,-1.3778,-1.3778,-1.4124,-1.4115,-1.4088,-1.4068,-1.4049,-1.403,-1.4019,-1.3997,-1.3979,-1.3952,-1.3936,-1.3916,-1.389,-1.3853,-1.3837,-1.3821,-1.3813,-1.3812,-1.3812,-1.3812,-1.3815,-1.3801,-1.3816,-1.3816,-1.3816,-1.3816,-1.3816,0,-1.4144,-1.4125,-1.4108,-1.4079,-1.4064,-1.4047,-1.4023,-1.4012,-1.3995,-1.3972,-1.3954,-1.3931,-1.391,-1.3882,-1.3859,-1.3852,-1.3843,-1.3847,-1.3847,-1.3843,-1.3824,-1.3826,-1.3855,-1.3855,-1.3855,-1.3855,-1.3855,-1.3855,-1.4152,-1.4137,-1.4121,-1.4097,-1.4078,-1.4059,-1.4047,-1.403,-1.4012,-1.3987,-1.397,-1.3952,-1.3928,-1.3903,-1.3884,-1.3876,-1.3869,-1.3877,-1.3866,-1.3848,-1.3844,-1.3841,-1.3843,-1.3876,-1.3876,-1.3887,-1.3887,-1.3887]},{"header":{"parameterUnit":"m.s-1","parameterCategory":1,"la1":30.2991,"la2":30.254,"lo1":-89.0895,"lo2":-89.0444,"dy":0.0017,"dx":0.0017,"nx":28,"ny":28,"refTime":"2025-06-11T21:00:00:Z","depth":0,"parameterNumber":3,"parameterNumberName":"V-component_of_WINDS"},"data":[0,0,0,0,0,0,0,0,0,0,0,0,0,0,0,0,0,0,0,0,0,0,0,0,0,0,0,0,0,0,0,0,0,0,0,0,0,0,0,0,0,0,0,0,0,0,0,0,0,0,0,0,0,0,0,0,0,0,3.664,3.664,0,3.6649,3.6649,3.6649,3.6673,3.6674,3.6674,3.6675,3.6682,3.6682,3.6681,0,0,0,0,0,0,0,0,0,0,0,0,0,3.6642,3.6642,3.664,3.664,3.664,3.6649,3.6649,3.6649,3.6673,3.6674,3.6674,3.6675,3.6682,3.6682,3.6681,0,0,0,0,0,0,0,0,0,0,0,0,0,3.6645,3.6642,3.664,3.6653,3.6654,3.6649,3.6649,3.6649,3.6673,3.6674,3.6675,3.6675,3.6682,3.6682,3.6681,3.6663,0,0,3.668,3.668,0,0,0,0,0,0,0,0,3.6645,3.6645,3.6651,3.6652,3.6654,3.6661,3.6652,3.6653,3.6673,3.6666,3.6675,3.6676,3.6674,3.6674,3.6674,3.6663,3.6663,3.668,3.668,3.6679,3.6679,0,0,0,0,0,0,0,3.6645,3.6645,3.6643,3.6651,3.6653,3.6658,3.6659,3.6653,3.6665,3.6667,3.6668,3.6669,3.6675,3.6675,3.6675,3.6663,3.668,3.668,3.6679,3.6679,3.6637,3.6636,0,0,0,0,0,0,3.6643,3.6644,3.6643,3.6643,3.6651,3.6658,3.6659,3.6658,3.6666,3.6668,3.6668,3.667,3.6675,3.6675,3.6675,3.6653,3.6679,3.6679,3.6679,3.6638,3.6637,3.6636,0,0,0,0,0,0,3.6643,3.6642,3.6643,3.6644,3.6645,3.6657,3.6655,3.6657,3.6657,3.6667,3.6669,3.6666,3.6676,3.6676,3.6666,3.6654,3.6679,3.6678,3.6639,3.6638,3.6636,3.661,0,0,0,0,0,0,3.6643,3.6642,3.6635,3.6644,3.6645,3.6633,3.6654,3.6657,3.6656,3.6659,3.6665,3.6667,3.6676,3.6666,3.6665,3.6654,3.6678,3.664,3.6638,3.6637,3.6612,3.6608,3.6605,0,0,0,0,0,3.6643,3.6627,3.6635,3.6635,3.6637,3.6633,3.6633,3.6645,3.6655,3.6649,3.6655,3.6667,3.6656,3.6665,3.6664,3.6652,3.6641,3.6639,3.6637,3.6614,3.6609,3.6605,0,0,0,0,0,0,3.6616,3.6629,3.6637,3.6625,3.6628,3.6637,3.6629,3.6639,3.6639,3.6641,3.6655,3.6656,3.6644,3.6647,3.6657,3.6635,3.665,3.6648,3.6633,3.6628,3.6625,3.6624,3.6678,0,0,0,0,0,3.6609,3.6606,3.6616,3.6604,3.6605,3.6617,3.6615,3.6624,3.6627,3.6629,3.6634,3.6636,3.6634,3.6631,3.6629,3.6613,3.6615,3.6605,3.6601,3.6598,3.6596,3.6587,3.6583,3.663,3.663,3.663,0,0,3.6594,3.66,3.6597,3.6599,3.6602,3.6598,3.6617,3.6612,3.6608,3.6627,3.6619,3.6623,3.6626,3.6613,3.6608,3.6616,3.6583,3.6595,3.6593,3.6592,3.6585,3.658,3.6576,3.6628,3.6629,3.6629,0,0,3.6564,3.6569,3.6559,3.6562,3.6567,3.6575,3.6573,3.6581,3.6584,3.6576,3.659,3.6586,3.6581,3.6583,3.6583,3.6554,3.6565,3.6553,3.6534,3.6525,3.6522,3.6518,3.6508,3.6504,3.6551,3.6551,3.6551,0,3.6545,3.6539,3.6553,3.6546,3.6546,3.6564,3.6554,3.6556,3.656,3.656,3.6569,3.6562,3.6566,3.6554,3.6547,3.6546,3.6544,3.6552,3.6521,3.6518,3.6515,3.6505,3.6501,3.6549,3.6549,3.655,3.655,0,3.6515,3.651,3.6502,3.6506,3.6505,3.6497,3.6509,3.6506,3.6515,3.6522,3.6512,3.6518,3.6517,3.6514,3.6523,3.6503,3.6508,3.6519,3.6534,3.6509,3.65,3.6496,3.6547,3.6548,3.6548,3.6548,0,0,3.6468,3.648,3.6477,3.6479,3.6486,3.6482,3.6475,3.6475,3.6472,3.6474,3.6468,3.6463,3.6473,3.6474,3.6482,3.6475,3.6452,3.6487,3.6487,3.648,3.643,3.6422,3.6417,3.6459,3.6458,3.6458,3.643,0,3.644,3.6428,3.644,3.6426,3.6422,3.6439,3.6432,3.6436,3.6442,3.6439,3.6445,3.6442,3.6456,3.6456,3.645,3.6456,3.6442,3.6458,3.6453,3.6452,3.6451,3.6412,3.6403,3.6377,3.6426,3.6426,3.6425,0,3.6405,3.6406,3.6392,3.64,3.6399,3.6392,3.6393,3.6391,3.6395,3.6399,3.64,3.6411,3.6403,3.6419,3.6409,3.642,3.6418,3.6421,3.642,3.642,3.6437,3.6411,3.6368,3.6364,3.642,3.642,3.6421,0,3.6372,3.637,3.6361,3.6362,3.6372,3.6367,3.6371,3.6375,3.6375,3.6375,3.6375,3.6374,3.6374,3.6373,3.6383,3.6394,3.6371,3.6388,3.6375,3.6375,3.6369,3.6369,3.6326,3.6369,3.6369,3.6369,3.6369,0,3.6339,3.633,3.6347,3.6341,3.6331,3.6345,3.6334,3.6339,3.6343,3.6338,3.6353,3.6348,3.6362,3.6359,3.6367,3.6357,3.6357,3.636,3.6362,3.6359,3.6358,3.6358,3.636,3.6368,3.6368,3.6368,3.6368,0,3.6301,3.6312,3.6303,3.6313,3.6315,3.6307,3.6315,3.631,3.6317,3.6311,3.6311,3.6322,3.6318,3.6329,3.6327,3.6332,3.6318,3.6323,3.6317,3.6318,3.6305,3.6306,3.6259,3.6253,3.63,3.6299,3.6299,0,3.6279,3.6272,3.6281,3.628,3.6283,3.6279,3.6279,3.6292,3.6291,3.6295,3.6289,3.6288,3.6287,3.628,3.6288,3.6287,3.6292,3.6276,3.6292,3.6288,3.6291,3.6292,3.6291,3.6272,3.6271,3.6271,3.6271,0,3.6239,3.6245,3.6244,3.6245,3.6244,3.6245,3.6247,3.6245,3.6259,3.6257,3.6254,3.6253,3.6252,3.6249,3.625,3.6253,3.6264,3.6266,3.6262,3.6259,3.6255,3.6257,3.6307,3.6267,3.6267,3.6267,3.6267,3.6268,3.6208,3.6203,3.6208,3.6207,3.621,3.6212,3.6207,3.6214,3.6212,3.6213,3.6221,3.6216,3.622,3.6222,3.6224,3.622,3.6228,3.6223,3.6222,3.6221,3.6218,3.6256,3.622,3.622,3.6221,3.6221,3.6221,0,3.6169,3.6173,3.6172,3.6175,3.6173,3.6184,3.6187,3.6185,3.6181,3.6185,3.6184,3.618,3.6178,3.6186,3.6185,3.618,3.6185,3.618,3.618,3.618,3.6212,3.6215,3.6176,3.6176,3.6176,3.6176,3.6176,3.6176,3.6148,3.614,3.6146,3.6139,3.6144,3.614,3.6141,3.6142,3.6145,3.6141,3.614,3.6145,3.615,3.6149,3.6147,3.615,3.6148,3.6141,3.6145,3.6174,3.6178,3.6182,3.6185,3.6141,3.614,3.6114,3.6114,3.6113]}]]